Location: Unspecified
(22.6800°N, 112.2000°E)
Time: 20:51:02
(UTC+08:00)

Vanguard 1 - All Passes

Search period start: 04 August 2021 00:00
Search period end: 14 August 2021 00:00
Orbit: 652 x 3831 km, 34.2° (Epoch: 03 August)

Date Brightness Start Highest point End Pass type
(mag) Time Alt. Az. Time Alt. Az. Time Alt. Az.
04 Aug - 06:18:32 10° S 06:21:45 14° SSE 06:24:27 10° ESE daylight
04 Aug - 08:37:16 10° WSW 08:42:07 87° NNW 08:46:37 10° ENE daylight
04 Aug - 10:58:58 10° WNW 11:02:53 26° N 11:07:56 10° NE daylight
04 Aug - 13:19:00 10° NW 13:24:47 41° NNE 13:34:37 10° E daylight
04 Aug - 15:38:17 10° WNW 15:46:53 84° SSW 16:03:34 10° ESE daylight
04 Aug - 17:59:50 10° W 18:11:04 36° SSW 18:28:44 10° SSE daylight
04 Aug - 20:35:26 10° SW 20:38:19 10° SSW 20:41:20 10° SSW visible
05 Aug - 06:37:54 10° SSW 06:42:55 24° SSE 06:46:45 10° E daylight
05 Aug - 08:58:28 10° WSW 09:03:04 53° NNW 09:07:33 10° NE daylight
05 Aug - 11:20:17 10° NW 11:24:13 25° N 11:29:28 10° ENE daylight
05 Aug - 13:39:50 10° NW 13:45:59 50° NNE 13:56:55 10° E daylight
05 Aug - 15:59:16 10° WNW 16:08:09 67° SSW 16:25:01 10° SE daylight
05 Aug - 18:22:06 10° W 18:32:50 27° SSW 18:48:28 10° SSE daylight
06 Aug - 06:58:08 10° SW 07:03:59 39° SSE 07:08:15 10° E daylight
06 Aug - 09:19:53 10° W 09:24:07 36° NNW 09:28:25 10° NE daylight
06 Aug - 11:41:27 10° NW 11:45:34 26° N 11:51:15 10° ENE daylight
06 Aug - 14:00:38 10° NW 14:07:05 63° NNE 14:19:06 10° ESE daylight
06 Aug - 16:20:25 10° WNW 16:29:30 52° SSW 16:46:04 10° SE daylight
06 Aug - 18:45:16 10° WSW 18:54:46 19° SSW 19:07:24 10° S daylight
07 Aug - 05:00:05 10° S 05:03:43 13° SSE 05:06:41 10° SE visible
07 Aug - 07:18:53 10° SW 07:24:57 65° SSE 07:29:23 10° ENE daylight
07 Aug - 09:41:26 10° WNW 09:45:16 27° NNW 09:49:21 10° NE daylight
07 Aug - 12:02:26 10° NW 12:06:52 29° NNE 12:13:16 10° ENE daylight
07 Aug - 14:21:25 10° WNW 14:28:11 81° NNE 14:41:02 10° ESE daylight
07 Aug - 16:41:50 10° W 16:50:59 40° SSW 17:06:41 10° SSE daylight
07 Aug - 19:10:26 10° SW 19:16:56 13° SSW 19:24:37 10° S visible
08 Aug - 05:19:01 10° SSW 05:25:06 21° SSE 05:29:26 10° ESE visible
08 Aug - 07:40:00 10° WSW 07:45:53 79° NNW 07:50:19 10° ENE daylight
08 Aug - 10:02:58 10° WNW 10:06:31 22° N 10:10:25 10° NE daylight
08 Aug - 12:23:16 10° NW 12:28:04 35° NNE 12:35:23 10° E daylight
08 Aug - 14:42:17 10° WNW 14:49:17 79° SSW 15:02:40 10° SE daylight
08 Aug - 17:03:39 10° W 17:12:36 30° SSW 17:26:48 10° SSE daylight
09 Aug - 05:39:00 10° SSW 05:46:22 32° SSE 05:51:11 10° E visible
09 Aug - 08:01:24 10° W 08:06:50 51° NNW 08:11:08 10° NE daylight
09 Aug - 10:24:24 10° NW 10:27:50 21° N 10:31:44 10° NE daylight
09 Aug - 12:44:03 10° NW 12:49:10 45° NNE 12:57:28 10° E daylight
09 Aug - 15:03:17 10° WNW 15:10:28 60° SSW 15:23:56 10° SE daylight
09 Aug - 17:26:07 10° WSW 17:34:22 22° SSW 17:46:15 10° SSE daylight
10 Aug - 03:40:40 10° S 03:45:10 13° SSE 03:48:49 10° SE visible
10 Aug - 05:59:35 10° SW 06:07:31 49° SSE 06:12:28 10° ENE daylight
10 Aug - 08:23:00 10° W 08:27:50 35° NNW 08:31:54 10° NE daylight
10 Aug - 10:45:37 10° NW 10:49:09 22° N 10:53:20 10° ENE daylight
10 Aug - 13:04:48 10° NW 13:10:11 61° NNE 13:19:25 10° ESE daylight
10 Aug - 15:24:29 10° W 15:31:46 44° SSW 15:44:48 10° SE daylight
10 Aug - 17:49:52 10° WSW 17:56:19 15° SSW 18:04:32 10° S daylight
11 Aug - 03:59:10 10° SSW 04:06:46 20° SSE 04:12:04 10° ESE visible
11 Aug - 06:20:34 10° SW 06:28:33 75° SSE 06:33:29 10° ENE daylight
11 Aug - 08:44:45 10° WNW 08:48:58 26° NNW 08:52:44 10° NE daylight
11 Aug - 11:06:37 10° NW 11:10:24 25° NNE 11:15:09 10° ENE daylight
11 Aug - 13:25:36 10° WNW 13:31:12 83° NNE 13:41:08 10° ESE daylight
11 Aug - 15:45:59 10° W 15:53:13 32° SSW 16:05:13 10° SSE daylight
12 Aug - 04:18:54 10° SSW 04:28:15 29° SSE 04:34:06 10° E visible
12 Aug - 06:41:55 10° WSW 06:49:31 75° NNW 06:54:21 10° ENE daylight
12 Aug - 09:06:29 10° WNW 09:10:11 22° N 09:13:40 10° NE daylight
12 Aug - 11:27:27 10° NW 11:31:34 31° NNE 11:37:04 10° E daylight
12 Aug - 13:46:28 10° WNW 13:52:14 71° SSW 14:02:32 10° SE daylight
12 Aug - 16:08:00 10° WSW 16:14:48 23° SSW 16:25:03 10° SSE daylight
13 Aug - 02:20:36 10° S 02:25:58 13° SSE 02:30:22 10° SE visible
13 Aug - 04:39:17 10° SW 04:49:35 42° SSE 04:55:34 10° E visible
13 Aug - 07:03:32 10° W 07:10:29 51° NNW 07:15:07 10° NE daylight
13 Aug - 09:28:04 10° NW 09:31:29 20° N 09:34:50 10° NE daylight
13 Aug - 11:48:12 10° NW 11:52:38 42° NNE 11:58:57 10° E daylight
13 Aug - 14:07:30 10° WNW 14:13:21 50° SSW 14:23:35 10° SE daylight
13 Aug - 16:30:58 10° WSW 16:36:32 16° SSW 16:43:54 10° S daylight
